Regional Weather Roundup
Issued by NWS Kansas City/Pleasant Hill, MO

Home | Current Version | Previous Version | Text Only | Print | Product List | Glossary On
Versions: 1 2 3 4 5 6 7 8 9 10 11 12 13 14 15 16 17 18 19 20 21 22 23 24 25 26 27 28 29 30 31 32 33 34 35 36 37 38 39 40 41 42 43 44 45 46 47 48 49 50
000
ASUS43 KEAX 211611
RWREAX

WEATHER ROUNDUP FOR EASTERN KANSAS AND NORTHWEST MISSOURI
NATIONAL WEATHER SERVICE KANSAS CITY/PLEASANT HILL MO
1100 AM CDT THU AUG 21 2014

KSZ040-057-103>105-MOZ028-029-037-043-211700-
...KANSAS CITY METROPOLITAN AREA...

CITY           SKY/WX    TMP DP  RH WIND       PRES   REMARKS
K.C. INTL      CLOUDY    85  73  67 S16       29.92R HX  91
K.C. DOWNTOWN  PTSUNNY   86  71  60 SW16      29.91S HX  91
LEES SUMMIT    SUNNY     85  72  65 SW12G23   29.95R HX  91
OLATHE - IXD   MOSUNNY   86  70  58 S16       29.94S HX  90
OLATHE - OJC   MOSUNNY   85  72  65 SW14      29.94R HX  91
LAWRENCE       MOSUNNY   88  71  57 SW5       29.91S HX  94

$$

MOZ001>008-011>017-020>025-030>033-038>040-044>046-053-054-211700-
...NORTHERN AND CENTRAL MISSOURI...

CITY           SKY/WX    TMP DP  RH WIND       PRES   REMARKS
ST. JOSEPH     CLOUDY    82  74  76 S8        29.90R
MOSBY          MOSUNNY   86  70  58 S7        29.92R HX  90
WHITEMAN AFB   MOSUNNY   85  68  57 SW17G25   29.95S
CLINTON        SUNNY     86  75  70 SW13      29.98S HX  95
SEDALIA        MOSUNNY   86  72  62 SW20G25   29.98R HX  92
WARSAW         NOT AVBL
MARSHALL       MOSUNNY   86  75  70 SW13G18   29.96R HX  95
CHILLICOTHE      N/A     85  73  67 VRB7      29.93R HX  91
MOBERLY        SUNNY     86  72  62 SW14      29.97S HX  92
KIRKSVILLE     SUNNY     85  72  65 SW14G21   29.95R HX  91

$$

MOZ041-047>049-056>058-063>065-088>090-097-211700-
...EASTERN AND SOUTHERN MISSOURI...

CITY           SKY/WX    TMP DP  RH WIND       PRES   REMARKS
ST. LOUIS INTL PTSUNNY   87  73  62 SW12      30.02R HX  94
SPIRIT OF STL  MOSUNNY   85  73  67 SW9       30.00R HX  91
COLUMBIA       MOSUNNY   85  73  67 SW16      29.99S HX  91
JEFFERSON CITY MOSUNNY   85  73  67 S5        29.99R HX  91
MEXICO         SUNNY     84  77  79 SW15      29.98S HX  94
HANNIBAL       MOSUNNY   86  70  58 SW10      29.97R HX  90
ROLLA          SUNNY     85  72  65 SW13      30.03S HX  91
LEBANON        SUNNY     90  68  48 SW10G21   30.05S HX  93
OSAGE BEACH    SUNNY     88  72  58 SW14      30.01S HX  94
SPRINGFIELD    SUNNY     88  70  55 SW17      30.04R HX  93
BRANSON        SUNNY     90  70  51 SW14      30.08R HX  95
NEVADA         SUNNY     88  72  58 S13G20    29.99F HX  94
JOPLIN         SUNNY     88  71  57 SW18      30.01S HX  94
WEST PLAINS    SUNNY     85  71  63 SW12      30.09S HX  90

$$

IAZ060-094-KSZ022-034>040-054-083-096-NEZ052-066-093-211700-
...KANSAS...SOUTHEAST NEBRASKA AND IOWA...

CITY           SKY/WX    TMP DP  RH WIND       PRES   REMARKS
TOPEKA         MOSUNNY   88  71  57 S13       29.90S HX  94
MANHATTAN      SUNNY     92  68  45 SW18G26   29.87R HX  96
EMPORIA        SUNNY     89  68  49 S24G30    29.92S HX  93
CHANUTE        SUNNY     89  70  53 S16       29.97S HX  94
WICHITA        SUNNY     90  67  46 S17G25    29.92S HX  93
OMAHA          PTSUNNY   81  69  67 SE10      29.82S
LINCOLN        CLOUDY    76  68  76 S10       29.80F
FALLS CITY     CLOUDY    85  71  63 SW7       29.88R HX  90
LAMONI         CLOUDY    80  72  76 SW17      29.89S
DES MOINES     CLOUDY    78  72  81 VRB3      29.88R

$$



USA.gov is the U.S. government's official web portal to all federal, state and local government web resources and services.